Tracking 19279 objects as of 14-Nov-2018
HD Live streaming from Space Station
objects crossing your sky now

COSMOS 1486

Track COSMOS 1486 now!
10-day predictions
COSMOS 1486 is classified as:


NORAD ID: 14240
Int'l Code: 1983-079A
Perigee: 775.5 km
Apogee: 796.4 km
Inclination: 74.1 °
Period: 100.4 minutes
Semi major axis: 7156 km
RCS: 2.07 m2 (large)
Launch date: August 3, 1983
Source: Commonwealth of Independent States (former USSR) (CIS)
Launch site: PLESETSK MISSILE AND SPACE COMPLEX (PKMTR)
aabbcc
Your satellite tracking list
Your tracking list is empty




NASA's NSSDC Master Catalog

Two Line Element Set (TLE):
1 14240U 83079A   18317.53824762  .00000019  00000-0  16095-4 0  9990
2 14240  74.0579  79.4359 0014569 322.3950 111.0220 14.33874462844534
Source of the keplerian elements: AFSPC